Weather History for Brunswick, GA

Change the Weather History Date:

Friday, February 8, 2013

  Actual Average Record
Temperature  
Mean Temperature 60 °F -  
Max Temperature 68 °F 63 °F 84 °F (1989)
Min Temperature 51 °F 40 °F 25 °F (1978)
Degree Days  
Heating Degree Days 4    
Growing Degree Days 10 (Base 50)    
Moisture  
Dew Point 54 °F    
Average Humidity 87    
Maximum Humidity 100    
Minimum Humidity 72    
Precipitation  
Precipitation 0.00 in - - ()
Sea Level Pressure  
Sea Level Pressure 29.99 in    
Wind  
Wind Speed 9 mph (West)    
Max Wind Speed 16 mph    
Max Gust Speed 24 mph    
Visibility 10 miles    
Events      
Averages and records for this station are not official NWS values.
T = Trace of Precipitation, MM = Missing Value Source: NWS Daily Summary

Daily Weather History Graph

Daily Weather History Graph

Search for Another Location

Airport:

Trip Planner

Search our weather history database for the weather conditions in past years. The results will help you decide how hot, cold, wet, or windy it might be!

Date:

Astronomy

Feb. 08, 2013 Rise Set
Actual Time 7:13 AM EST 6:07 PM EST
Civil Twilight 6:47 AM EST 6:32 PM EST
Nautical Twilight 6:19 AM EST 7:01 PM EST
Astronomical Twilight 5:50 AM EST 7:29 PM EST
Moon 5:37 AM EST (2/8) 4:41 PM EST (2/8)
Length of Visible Light 11h 44m
Length of Day
10h 54m
Waning Crescent, 3% of the Moon is Illuminated
Feb 8
Waning Crescent
Feb 10
New
Feb 17
First Quarter
Feb 25
Full
Mar 4
Last Quarter

Hourly Weather History & Observations

Time (EST) Temp. Dew Point Humidity Pressure Visibility Wind Dir Wind Speed Gust Speed Precip Events Conditions
12:15 AM 68.0 °F 64.4 °F 88% 29.83 in 10.0 mi West 15.0 mph 24.2 mph N/A   Overcast
12:35 AM 64.4 °F 62.6 °F 94% 29.84 in 10.0 mi West 15.0 mph 20.7 mph N/A   Overcast
12:55 AM 64.4 °F 60.8 °F 88% 29.85 in 10.0 mi WNW 9.2 mph 19.6 mph N/A   Overcast
1:15 AM 62.6 °F 59.0 °F 88% 29.86 in 10.0 mi West 16.1 mph 20.7 mph N/A   Overcast
1:35 AM 60.8 °F 57.2 °F 88% 29.87 in 10.0 mi West 10.4 mph 19.6 mph N/A   Overcast
1:55 AM 59.0 °F 57.2 °F 94% 29.88 in 7.0 mi WNW 9.2 mph 19.6 mph N/A   Overcast
2:15 AM 59.0 °F 55.4 °F 88% 29.87 in 10.0 mi West 10.4 mph 17.3 mph N/A   Overcast
2:35 AM 57.2 °F 55.4 °F 94% 29.87 in 10.0 mi WNW 9.2 mph 17.3 mph N/A   Overcast
2:55 AM 57.2 °F 55.4 °F 94% 29.88 in 10.0 mi WNW 9.2 mph - N/A   Overcast
3:15 AM 57.2 °F 55.4 °F 94% 29.88 in 7.0 mi West 10.4 mph - N/A   Overcast
3:35 AM 55.4 °F 55.4 °F 100% 29.88 in 10.0 mi WNW 11.5 mph 16.1 mph N/A   Overcast
3:55 AM 55.4 °F 53.6 °F 94% 29.88 in 7.0 mi West 9.2 mph - N/A   Overcast
4:15 AM 55.4 °F 53.6 °F 94% 29.89 in 10.0 mi WNW 6.9 mph - N/A   Overcast
4:35 AM 55.4 °F 53.6 °F 94% 29.90 in 10.0 mi WNW 5.8 mph - N/A   Overcast
4:55 AM 55.4 °F 53.6 °F 94% 29.91 in 10.0 mi West 6.9 mph - N/A   Overcast
5:15 AM 55.4 °F 53.6 °F 94% 29.92 in 10.0 mi WNW 4.6 mph - N/A   Overcast
5:35 AM 55.4 °F 53.6 °F 94% 29.93 in 7.0 mi Calm Calm - N/A   Overcast
5:55 AM 55.4 °F 53.6 °F 94% 29.93 in 10.0 mi West 6.9 mph - N/A   Overcast
6:15 AM 55.4 °F 53.6 °F 94% 29.94 in 10.0 mi WNW 6.9 mph - N/A   Overcast
6:35 AM 55.4 °F 53.6 °F 94% 29.95 in 10.0 mi WNW 8.1 mph - N/A   Overcast
6:55 AM 55.4 °F 51.8 °F 88% 29.96 in 10.0 mi WNW 8.1 mph - N/A   Overcast
7:15 AM 55.4 °F 51.8 °F 88% 29.97 in 10.0 mi WNW 5.8 mph - N/A   Overcast
7:35 AM 55.4 °F 53.6 °F 94% 29.98 in 10.0 mi West 4.6 mph - N/A   Overcast
7:55 AM 55.4 °F 53.6 °F 94% 29.99 in 10.0 mi WNW 5.8 mph - N/A   Overcast
8:15 AM 53.6 °F 53.6 °F 100% 29.99 in 10.0 mi WNW 5.8 mph - N/A   Overcast
8:35 AM 55.4 °F 51.8 °F 88% 30.00 in 10.0 mi WNW 5.8 mph - N/A   Overcast
8:55 AM 55.4 °F 51.8 °F 88% 30.01 in 10.0 mi WNW 6.9 mph - N/A   Overcast
9:15 AM 53.6 °F 51.8 °F 94% 30.02 in 10.0 mi NW 6.9 mph - N/A   Overcast
9:35 AM 53.6 °F 51.8 °F 94% 30.02 in 10.0 mi WNW 6.9 mph - N/A   Overcast
9:55 AM 55.4 °F 53.6 °F 94% 30.03 in 10.0 mi West 8.1 mph - N/A   Overcast
10:15 AM 55.4 °F 51.8 °F 88% 30.03 in 10.0 mi WNW 8.1 mph 17.3 mph N/A   Overcast
10:35 AM 55.4 °F 51.8 °F 88% 30.03 in 10.0 mi West 6.9 mph - N/A   Overcast
10:55 AM 57.2 °F 51.8 °F 82% 30.04 in 10.0 mi West 10.4 mph - N/A   Overcast
11:15 AM 57.2 °F 51.8 °F 82% 30.03 in 10.0 mi West 9.2 mph 17.3 mph N/A   Overcast
11:35 AM 59.0 °F 53.6 °F 82% 30.03 in 10.0 mi West 9.2 mph - N/A   Overcast
11:55 AM 59.0 °F 53.6 °F 82% 30.03 in 10.0 mi West 9.2 mph 16.1 mph N/A   Overcast
12:15 PM 59.0 °F 53.6 °F 82% 30.02 in 10.0 mi West 12.7 mph 17.3 mph N/A   Overcast
12:35 PM 59.0 °F 53.6 °F 82% 30.02 in 10.0 mi WSW 10.4 mph - N/A   Overcast
12:55 PM 59.0 °F 53.6 °F 82% 30.01 in 10.0 mi WNW 9.2 mph 16.1 mph N/A   Overcast
1:15 PM 60.8 °F 53.6 °F 77% 30.01 in 10.0 mi West 10.4 mph 17.3 mph N/A   Overcast
1:35 PM 60.8 °F 53.6 °F 77% 30.01 in 10.0 mi West 11.5 mph - N/A   Overcast
1:55 PM 60.8 °F 53.6 °F 77% 30.01 in 10.0 mi West 6.9 mph - N/A   Overcast
2:15 PM 60.8 °F 53.6 °F 77% 30.00 in 10.0 mi West 10.4 mph 16.1 mph N/A   Overcast
2:35 PM 60.8 °F 53.6 °F 77% 30.00 in 10.0 mi West 10.4 mph - N/A   Overcast
2:55 PM 60.8 °F 53.6 °F 77% 30.00 in 10.0 mi West 9.2 mph - N/A   Overcast
3:15 PM 60.8 °F 53.6 °F 77% 30.00 in 10.0 mi West 11.5 mph - N/A   Overcast
3:35 PM 62.6 °F 53.6 °F 72% 30.00 in 10.0 mi West 13.8 mph 17.3 mph N/A   Overcast
3:55 PM 62.6 °F 53.6 °F 72% 30.00 in 10.0 mi West 8.1 mph - N/A   Overcast
4:15 PM 62.6 °F 53.6 °F 72% 30.00 in 10.0 mi West 10.4 mph 20.7 mph N/A   Overcast
4:35 PM 62.6 °F 53.6 °F 72% 30.00 in 10.0 mi WNW 5.8 mph - N/A   Overcast
4:55 PM 62.6 °F 55.4 °F 77% 30.00 in 10.0 mi West 6.9 mph - N/A   Overcast
5:15 PM 62.6 °F 55.4 °F 77% 30.00 in 10.0 mi West 5.8 mph - N/A   Mostly Cloudy
5:35 PM 62.6 °F 53.6 °F 72% 30.00 in 10.0 mi West 8.1 mph - N/A   Scattered Clouds
5:55 PM 60.8 °F 53.6 °F 77% 30.00 in 10.0 mi West 6.9 mph - N/A   Clear
6:15 PM 60.8 °F 53.6 °F 77% 30.01 in 10.0 mi West 5.8 mph - N/A   Clear
6:35 PM 59.0 °F 53.6 °F 82% 30.02 in 10.0 mi West 6.9 mph - N/A   Clear
6:55 PM 59.0 °F 53.6 °F 82% 30.03 in 10.0 mi West 4.6 mph - N/A   Clear
7:15 PM 59.0 °F 53.6 °F 82% 30.04 in 10.0 mi West 6.9 mph - N/A   Clear
7:35 PM 59.0 °F 53.6 °F 82% 30.04 in 10.0 mi West 4.6 mph - N/A   Clear
7:55 PM 57.2 °F 53.6 °F 88% 30.05 in 10.0 mi West 6.9 mph - N/A   Clear
8:15 PM 57.2 °F 53.6 °F 88% 30.06 in 10.0 mi West 5.8 mph - N/A   Clear
8:35 PM 57.2 °F 53.6 °F 88% 30.06 in 10.0 mi West 5.8 mph - N/A   Clear
8:55 PM 55.4 °F 53.6 °F 94% 30.07 in 10.0 mi West 4.6 mph - N/A   Clear
9:15 PM 55.4 °F 53.6 °F 94% 30.08 in 10.0 mi West 4.6 mph - N/A   Clear
9:35 PM 55.4 °F 53.6 °F 94% 30.08 in 10.0 mi West 3.5 mph - N/A   Clear
9:55 PM 53.6 °F 53.6 °F 100% 30.08 in 10.0 mi Calm Calm - N/A   Clear
10:15 PM 53.6 °F 51.8 °F 94% 30.09 in 10.0 mi West 3.5 mph - N/A   Clear
10:35 PM 53.6 °F 53.6 °F 100% 30.09 in 10.0 mi SW 5.8 mph - N/A   Clear
10:55 PM 53.6 °F 51.8 °F 94% 30.09 in 10.0 mi Calm Calm - N/A   Clear
11:15 PM 53.6 °F 53.6 °F 100% 30.09 in 10.0 mi West 3.5 mph - N/A   Clear
11:35 PM 53.6 °F 53.6 °F 100% 30.10 in 10.0 mi WSW 3.5 mph - N/A   Clear
11:55 PM 51.8 °F 51.8 °F 100% 30.10 in 7.0 mi West 3.5 mph - N/A   Clear